Lorain / Elyria, OH

9:24 PM EDT on June 27, 2017 (GMT -0400)
Lorain County Regional

Weather History for KLPR - August, 2013

Change the Weather History Date:

Friday, August 23, 2013

  Actual Average (KCLE) Record (KCLE)
Temperature  
Mean Temperature 70 °F -  
Max Temperature 82 °F 78 °F 93 °F (1954)
Min Temperature 57 °F 60 °F 48 °F (1969)
Cooling Degree Days 6    
Growing Degree Days 20 (Base 50)    
Moisture  
Dew Point 61 °F    
Average Humidity 72    
Maximum Humidity 93    
Minimum Humidity 35    
Precipitation  
Precipitation 0.03 in - - ()
Sea Level Pressure  
Sea Level Pressure 30.09 in    
Wind  
Wind Speed 4 mph (NNE)    
Max Wind Speed 13 mph    
Max Gust Speed 18 mph    
Visibility 9 miles    
Events Rain , Thunderstorm    
Averages and records for this station are not official NWS values.
T = Trace of Precipitation, MM = Missing Value Source: NWS Daily Summary

Daily Weather History Graph

Daily Weather History Graph

Search for Another Location

Airport or City:

Trip Planner

Search our weather history database for the weather conditions in past years. The results will help you decide how hot, cold, wet, or windy it might be!

Date:

Astronomy

Aug. 23, 2013 Rise Set
Actual Time 6:46 AM EDT 8:15 PM EDT
Civil Twilight 6:17 AM EDT 8:44 PM EDT
Nautical Twilight 5:42 AM EDT 9:19 PM EDT
Astronomical Twilight 5:05 AM EDT 9:56 PM EDT
Moon 9:30 PM EDT (8/23) 9:42 AM EDT (8/23)
Length of Visible Light 14h 27m
Length of Day
13h 29m
Waning Gibbous, 91% of the Moon is Illuminated
Aug 23
Waning Gibbous
Aug 28
Last Quarter
Sep 5
New
Sep 12
First Quarter
Sep 19
Full

Hourly Weather History & Observations

Time (EDT) Temp. Heat Index Dew Point Humidity Pressure Visibility Wind Dir Wind Speed Gust Speed Precip Events Conditions
12:53 AM 72.0 °F - 68.0 °F 87% 30.03 in 8.0 mi Calm Calm - N/A   Scattered Clouds
1:53 AM 73.0 °F - 68.0 °F 84% 30.03 in 9.0 mi NNE 4.6 mph - N/A   Mostly Cloudy
2:53 AM 72.0 °F - 66.0 °F 81% 30.02 in 10.0 mi Calm Calm - 0.00 in   Overcast
3:25 AM 71.6 °F - 66.2 °F 83% 30.05 in 9.0 mi West 4.6 mph - 0.01 in Rain , Thunderstorm Light Rain
3:40 AM 71.6 °F - 66.2 °F 83% 30.05 in 9.0 mi NW 3.5 mph - 0.01 in Rain Light Rain
3:53 AM 70.0 °F - 66.9 °F 90% 30.04 in 8.0 mi NW 3.5 mph - 0.01 in   Overcast
4:53 AM 70.0 °F - 66.9 °F 90% 30.04 in 6.0 mi WNW 3.5 mph - 0.01 in   Overcast
5:40 AM 69.8 °F - 66.2 °F 88% 30.06 in 7.0 mi Calm Calm - 0.00 in Rain Light Rain
5:53 AM 69.1 °F - 66.0 °F 90% 30.05 in 7.0 mi Calm Calm - 0.00 in Rain Light Rain
6:09 AM 69.8 °F - 66.2 °F 88% 30.06 in 5.0 mi Calm Calm - 0.00 in   Scattered Clouds
6:53 AM 68.0 °F - 66.0 °F 93% 30.06 in 4.0 mi NNW 3.5 mph - 0.00 in   Partly Cloudy
7:53 AM 68.0 °F - 66.0 °F 93% 30.08 in 3.0 mi NW 3.5 mph - N/A   Clear
8:53 AM 75.0 °F - 68.0 °F 79% 30.09 in 8.0 mi NNE 5.8 mph - N/A   Clear
9:53 AM 75.9 °F - 66.0 °F 71% 30.10 in 10.0 mi NE 9.2 mph - 0.01 in   Partly Cloudy
10:53 AM 77.0 °F - 66.0 °F 69% 30.11 in 10.0 mi NNE 8.1 mph - N/A   Scattered Clouds
11:53 AM 80.1 °F 81.9 °F 64.9 °F 60% 30.12 in 10.0 mi NNE 8.1 mph - N/A   Scattered Clouds
12:53 PM 81.0 °F 81.7 °F 61.0 °F 50% 30.12 in 10.0 mi NNE 10.4 mph 16.1 mph N/A   Partly Cloudy
1:53 PM 81.0 °F 81.1 °F 57.9 °F 45% 30.12 in 10.0 mi NNE 10.4 mph 18.4 mph N/A   Clear
2:53 PM 81.0 °F 80.8 °F 55.9 °F 42% 30.12 in 10.0 mi North 12.7 mph - N/A   Clear
3:53 PM 80.1 °F 80.0 °F 54.0 °F 40% 30.12 in 10.0 mi NE 10.4 mph - N/A   Clear
4:53 PM 80.1 °F - 50.0 °F 35% 30.12 in 10.0 mi NE 12.7 mph 18.4 mph N/A   Clear
5:53 PM 79.0 °F - 50.0 °F 36% 30.12 in 10.0 mi NE 10.4 mph - N/A   Clear
6:53 PM 77.0 °F - 52.0 °F 42% 30.12 in 10.0 mi NE 8.1 mph - N/A   Clear
7:53 PM 71.1 °F - 55.0 °F 57% 30.13 in 10.0 mi ENE 3.5 mph - N/A   Clear
8:53 PM 64.0 °F - 57.0 °F 78% 30.14 in 10.0 mi NNE 3.5 mph - N/A   Clear
9:53 PM 61.0 °F - 55.0 °F 81% 30.17 in 10.0 mi Calm Calm - N/A   Clear
10:53 PM 60.1 °F - 55.0 °F 83% 30.18 in 10.0 mi Calm Calm - N/A   Clear
11:53 PM 57.9 °F - 54.0 °F 87% 30.20 in 10.0 mi Calm Calm - N/A   Clear